Time,TemperatureF,DewpointF,PressureIn,WindDirection,WindDirectionDegrees,WindSpeedMPH,WindSpeedGustMPH,Humidity,HourlyPrecipIn,Conditions,Clouds,dailyrainin,SolarRadiationWatts/m^2,SoftwareType,DateUTC
2013-06-19 00:22:00,38.0,31.0,-100.00,North,6,0.0,8.0,75,0.00,,,0.00,0.000000,,2013-06-19 07:22:00,
2013-06-19 00:33:00,38.0,31.0,-100.00,North,6,0.0,8.0,75,0.00,,,0.00,0.000000,,2013-06-19 07:33:00,
2013-06-19 00:43:00,38.0,31.0,-100.00,North,6,0.0,8.0,75,0.00,,,0.00,0.000000,,2013-06-19 07:43:00,
2013-06-19 00:53:00,38.0,31.0,-100.00,North,6,0.0,8.0,75,0.00,,,0.00,0.000000,,2013-06-19 07:53:00,
2013-06-19 01:22:00,38.0,30.0,-100.00,SW,233,0.0,7.0,74,0.00,,,0.00,0.000000,,2013-06-19 08:22:00,
2013-06-19 01:33:00,38.0,30.0,-100.00,SW,233,0.0,7.0,74,0.00,,,0.00,0.000000,,2013-06-19 08:33:00,
2013-06-19 01:43:00,38.0,30.0,-100.00,SW,233,0.0,7.0,74,0.00,,,0.00,0.000000,,2013-06-19 08:43:00,
2013-06-19 01:53:00,38.0,30.0,-100.00,SW,233,0.0,7.0,74,0.00,,,0.00,0.000000,,2013-06-19 08:53:00,
2013-06-19 02:34:00,38.0,32.0,-100.00,ENE,66,0.0,6.0,80,0.00,,,0.00,0.000000,,2013-06-19 09:34:00,
2013-06-19 02:43:00,38.0,32.0,-100.00,ENE,66,0.0,6.0,80,0.00,,,0.00,0.000000,,2013-06-19 09:43:00,
2013-06-19 02:53:00,38.0,32.0,-100.00,ENE,66,0.0,6.0,80,0.00,,,0.00,0.000000,,2013-06-19 09:53:00,
2013-06-19 03:22:00,38.0,32.0,-100.00,WSW,244,0.0,12.0,79,0.00,,,0.00,0.000000,,2013-06-19 10:22:00,
2013-06-19 03:33:00,38.0,32.0,-100.00,WSW,244,0.0,12.0,79,0.00,,,0.00,0.000000,,2013-06-19 10:33:00,
2013-06-19 03:42:00,38.0,32.0,-100.00,WSW,244,0.0,12.0,79,0.00,,,0.00,0.000000,,2013-06-19 10:42:00,
2013-06-19 03:52:00,38.0,32.0,-100.00,WSW,244,0.0,12.0,79,0.00,,,0.00,0.000000,,2013-06-19 10:52:00,
2013-06-19 04:22:00,37.0,32.0,-100.00,NW,305,0.0,6.0,81,0.00,,,0.00,0.000000,,2013-06-19 11:22:00,
2013-06-19 04:33:00,37.0,32.0,-100.00,NW,305,0.0,6.0,81,0.00,,,0.00,0.000000,,2013-06-19 11:33:00,
2013-06-19 04:42:00,37.0,32.0,-100.00,NW,305,0.0,6.0,81,0.00,,,0.00,0.000000,,2013-06-19 11:42:00,
2013-06-19 04:54:00,37.0,32.0,-100.00,NW,305,0.0,6.0,81,0.00,,,0.00,0.000000,,2013-06-19 11:54:00,
2013-06-19 05:22:00,35.0,31.0,-100.00,ENE,67,0.0,7.0,85,0.00,,,0.00,0.000000,,2013-06-19 12:22:00,
2013-06-19 05:34:00,35.0,31.0,-100.00,ENE,67,0.0,7.0,85,0.00,,,0.00,0.000000,,2013-06-19 12:34:00,
2013-06-19 05:44:00,35.0,31.0,-100.00,ENE,67,0.0,7.0,85,0.00,,,0.00,0.000000,,2013-06-19 12:44:00,
2013-06-19 05:52:00,35.0,31.0,-100.00,ENE,67,0.0,7.0,85,0.00,,,0.00,0.000000,,2013-06-19 12:52:00,
2013-06-19 06:33:00,34.0,31.0,-100.00,NNW,346,0.0,4.0,88,0.00,,,0.00,2.000000,,2013-06-19 13:33:00,
2013-06-19 06:42:00,34.0,31.0,-100.00,NNW,346,0.0,4.0,88,0.00,,,0.00,2.000000,,2013-06-19 13:42:00,
2013-06-19 06:53:00,34.0,31.0,-100.00,NNW,346,0.0,4.0,88,0.00,,,0.00,2.000000,,2013-06-19 13:53:00,
2013-06-19 07:22:00,37.0,31.0,-100.00,East,80,0.0,7.0,80,0.00,,,0.00,33.000000,,2013-06-19 14:22:00,
2013-06-19 07:33:00,37.0,31.0,-100.00,East,80,0.0,7.0,80,0.00,,,0.00,33.000000,,2013-06-19 14:33:00,
2013-06-19 07:43:00,37.0,31.0,-100.00,East,80,0.0,7.0,80,0.00,,,0.00,33.000000,,2013-06-19 14:43:00,
2013-06-19 07:52:00,37.0,31.0,-100.00,East,80,0.0,7.0,80,0.00,,,0.00,33.000000,,2013-06-19 14:52:00,
2013-06-19 08:33:00,39.0,32.0,-100.00,North,349,0.0,12.0,76,0.00,,,0.00,53.000000,,2013-06-19 15:33:00,
2013-06-19 08:42:00,39.0,32.0,-100.00,North,349,0.0,12.0,76,0.00,,,0.00,53.000000,,2013-06-19 15:42:00,
2013-06-19 08:53:00,39.0,32.0,-100.00,North,349,0.0,12.0,76,0.00,,,0.00,53.000000,,2013-06-19 15:53:00,
2013-06-19 09:33:00,44.0,32.0,-100.00,ENE,70,1.0,13.0,62,0.00,,,0.00,110.000000,,2013-06-19 16:33:00,
2013-06-19 09:43:00,44.0,32.0,-100.00,ENE,70,1.0,13.0,62,0.00,,,0.00,110.000000,,2013-06-19 16:43:00,
2013-06-19 09:52:00,44.0,32.0,-100.00,ENE,70,1.0,13.0,62,0.00,,,0.00,110.000000,,2013-06-19 16:52:00,
2013-06-19 10:34:00,48.0,31.0,-100.00,WSW,251,3.0,18.0,52,0.00,,,0.00,358.000000,,2013-06-19 17:34:00,
2013-06-19 10:43:00,48.0,31.0,-100.00,WSW,251,3.0,18.0,52,0.00,,,0.00,358.000000,,2013-06-19 17:43:00,
2013-06-19 10:53:00,48.0,31.0,-100.00,WSW,251,3.0,18.0,52,0.00,,,0.00,358.000000,,2013-06-19 17:53:00,
2013-06-19 11:23:00,52.0,32.0,-100.00,North,353,5.0,19.0,46,0.00,,,0.00,1007.000000,,2013-06-19 18:23:00,
2013-06-19 11:33:00,52.0,32.0,-100.00,North,353,5.0,19.0,46,0.00,,,0.00,1007.000000,,2013-06-19 18:33:00,
2013-06-19 11:44:00,52.0,32.0,-100.00,North,353,5.0,19.0,46,0.00,,,0.00,1007.000000,,2013-06-19 18:44:00,
2013-06-19 13:22:00,48.0,30.0,-100.00,NW,304,4.0,23.0,50,-99.99,,,0.00,755.000000,,2013-06-19 20:22:00,
2013-06-19 13:33:00,48.0,30.0,-100.00,NW,304,4.0,23.0,50,-99.99,,,0.00,755.000000,,2013-06-19 20:33:00,
2013-06-19 13:42:00,48.0,30.0,-100.00,NW,304,4.0,23.0,50,-99.99,,,0.00,755.000000,,2013-06-19 20:42:00,
2013-06-19 13:52:00,48.0,30.0,-100.00,NW,304,4.0,23.0,50,-99.99,,,0.00,755.000000,,2013-06-19 20:52:00,
2013-06-19 14:22:00,52.0,37.0,-100.00,NW,305,3.0,21.0,57,0.00,,,0.00,1029.000000,,2013-06-19 21:22:00,
2013-06-19 14:33:00,52.0,37.0,-100.00,NW,305,3.0,21.0,57,0.00,,,0.00,1029.000000,,2013-06-19 21:33:00,
2013-06-19 14:44:00,52.0,37.0,-100.00,NW,305,3.0,21.0,57,0.00,,,0.00,1029.000000,,2013-06-19 21:44:00,
2013-06-19 14:52:00,52.0,37.0,-100.00,NW,305,3.0,21.0,57,0.00,,,0.00,1029.000000,,2013-06-19 21:52:00,
2013-06-19 15:22:00,55.0,34.0,-100.00,NW,313,5.0,19.0,45,0.00,,,0.00,1216.000000,,2013-06-19 22:22:00,
2013-06-19 15:34:00,55.0,34.0,-100.00,NW,313,5.0,19.0,45,0.00,,,0.00,1216.000000,,2013-06-19 22:34:00,
2013-06-19 16:33:00,55.0,35.0,-100.00,WNW,289,6.0,20.0,46,-99.99,,,0.00,1086.000000,,2013-06-19 23:33:00,
2013-06-19 17:33:00,54.0,36.0,-100.00,NNE,16,4.0,18.0,50,-99.99,,,0.00,923.000000,,2013-06-20 00:33:00,
2013-06-19 17:44:00,54.0,36.0,-100.00,NNE,16,4.0,18.0,50,-99.99,,,0.00,923.000000,,2013-06-20 00:44:00,
2013-06-19 18:22:00,51.0,35.0,-100.00,NW,323,4.0,17.0,55,-99.99,,,0.00,660.000000,,2013-06-20 01:22:00,
2013-06-19 18:33:00,51.0,35.0,-100.00,NW,323,4.0,17.0,55,-99.99,,,0.00,660.000000,,2013-06-20 01:33:00,
2013-06-19 18:44:00,51.0,35.0,-100.00,NW,323,4.0,17.0,55,-99.99,,,0.00,660.000000,,2013-06-20 01:44:00,
2013-06-19 18:52:00,51.0,35.0,-100.00,NW,323,4.0,17.0,55,-99.99,,,0.00,660.000000,,2013-06-20 01:52:00,
2013-06-19 19:24:00,47.0,33.0,-100.00,West,275,5.0,23.0,59,0.00,,,0.00,105.000000,,2013-06-20 02:24:00,
2013-06-19 19:33:00,47.0,33.0,-100.00,West,275,5.0,23.0,59,0.00,,,0.00,105.000000,,2013-06-20 02:33:00,
2013-06-19 19:43:00,47.0,33.0,-100.00,West,275,5.0,23.0,59,0.00,,,0.00,105.000000,,2013-06-20 02:43:00,
2013-06-19 19:52:00,47.0,33.0,-100.00,West,275,5.0,23.0,59,0.00,,,0.00,105.000000,,2013-06-20 02:52:00,
2013-06-19 20:22:00,40.0,32.0,-100.00,NE,48,2.0,18.0,73,0.00,,,0.00,31.000000,,2013-06-20 03:22:00,
2013-06-19 20:33:00,40.0,32.0,-100.00,NE,48,2.0,18.0,73,0.00,,,0.00,31.000000,,2013-06-20 03:33:00,
2013-06-19 20:43:00,40.0,32.0,-100.00,NE,48,2.0,18.0,73,0.00,,,0.00,31.000000,,2013-06-20 03:43:00,
2013-06-19 20:53:00,40.0,32.0,-100.00,NE,48,2.0,18.0,73,0.00,,,0.00,31.000000,,2013-06-20 03:53:00,
2013-06-19 21:22:00,37.0,31.0,-100.00,NW,313,1.0,9.0,79,0.00,,,0.00,7.000000,,2013-06-20 04:22:00,
2013-06-19 21:33:00,37.0,31.0,-100.00,NW,313,1.0,9.0,79,0.00,,,0.00,7.000000,,2013-06-20 04:33:00,
2013-06-19 21:43:00,37.0,31.0,-100.00,NW,313,1.0,9.0,79,0.00,,,0.00,7.000000,,2013-06-20 04:43:00,
2013-06-19 21:53:00,37.0,31.0,-100.00,NW,313,1.0,9.0,79,0.00,,,0.00,7.000000,,2013-06-20 04:53:00,
2013-06-19 22:22:00,37.0,31.0,-100.00,North,356,0.0,9.0,79,0.00,,,0.00,0.000000,,2013-06-20 05:22:00,
2013-06-19 22:33:00,37.0,31.0,-100.00,North,356,0.0,9.0,79,0.00,,,0.00,0.000000,,2013-06-20 05:33:00,
2013-06-19 22:44:00,37.0,31.0,-100.00,North,356,0.0,9.0,79,0.00,,,0.00,0.000000,,2013-06-20 05:44:00,
2013-06-19 22:52:00,37.0,31.0,-100.00,North,356,0.0,9.0,79,0.00,,,0.00,0.000000,,2013-06-20 05:52:00,
2013-06-19 23:33:00,35.0,31.0,-100.00,ENE,68,0.0,8.0,84,0.00,,,0.00,0.000000,,2013-06-20 06:33:00,
2013-06-19 23:43:00,35.0,31.0,-100.00,ENE,68,0.0,8.0,84,0.00,,,0.00,0.000000,,2013-06-20 06:43:00,
2013-06-19 23:53:00,35.0,31.0,-100.00,ENE,68,0.0,8.0,84,0.00,,,0.00,0.000000,,2013-06-20 06:53:00,